Location: Los Gatos B&B
(42.6926°N, 77.0646°W)
Time: 21:48:11
(UTC-04:00)

Amateur Radio Satellites - All Passes

Search period start: 18 April 2014 21:18
Search period end: 19 April 2014 21:18
Location: Los Gatos B&B, 42.6926°N, 77.0646°W

Satellite Date Start Highest point End Downlink Frequencies (MHz)
Time Altitude Azimuth
HO-68 18 Apr 21:22:31 21:29:40 87° 72° (ENE) 21:36:51 435.675 MHz FM
ISS 18 Apr 21:29:09 21:32:19 37° 25° (NNE) 21:35:28 145.800 FM
FUNcube-1 18 Apr 21:40:38 21:42:58 15° 64° (ENE) 21:45:17 145.950 - 145.970 MHz USB
Oscar 11 18 Apr 21:50:53 21:55:06 59° 74° (ENE) 21:59:22 145.825 FM, Beacon 2401.500 USB
MaSat-1 18 Apr 22:10:17 22:13:13 63° 115° (ESE) 22:15:49 437.345 MHz
ISS 18 Apr 23:05:58 23:09:02 33° 222° (SW) 23:12:06 145.800 FM
HO-68 18 Apr 23:13:49 23:18:12 17° 271° (W) 23:22:38 435.675 MHz FM
FUNcube-1 18 Apr 23:14:52 23:18:59 52° 260° (W) 23:23:05 145.950 - 145.970 MHz USB
SO-50 18 Apr 23:15:50 23:18:32 15° 36° (NE) 23:21:15 436.795 FM
Oscar 11 18 Apr 23:29:46 23:31:41 13° 270° (W) 23:33:37 145.825 FM, Beacon 2401.500 USB
PCSat 18 Apr 23:57:42 00:00:47 16° 104° (ESE) 00:03:53 145.825 MHz
Sapphire 19 Apr 00:53:31 00:58:37 45° 113° (ESE) 01:03:46 437.095 MHz 1200 baud AX-25 AFSK
SO-50 19 Apr 00:55:09 00:59:49 83° 56° (NE) 01:04:32 436.795 FM
Oscar 16 19 Apr 01:26:11 01:28:29 13° 89° (E) 01:30:46 437.025 USB, Beacon 2401.1428
PCSat 19 Apr 01:38:08 01:43:32 75° 301° (WNW) 01:48:59 145.825 MHz
OPAL 19 Apr 01:38:32 01:42:04 20° 59° (ENE) 01:45:39 ?
UOSAT-12 19 Apr 01:42:32 01:46:08 21° 41° (NE) 01:49:43 437.025 FM, 437.400 FM
Uribyol 2 19 Apr 01:59:54 02:02:31 14° 90° (E) 02:05:07 436.500 FM
KITSAT 1 19 Apr 02:10:16 02:16:21 24° 104° (ESE) 02:22:26 435.175 FM
Oscar 10/S400 19 Apr 02:31:11 02:48:25 26° 130° (SE) 03:32:34 145.825 - 145.975 CW/USB, Beacon 145.810 USB
Sapphire 19 Apr 02:37:28 02:42:12 30° 312° (NW) 02:46:58 437.095 MHz 1200 baud AX-25 AFSK
SO-50 19 Apr 02:38:02 02:39:45 12° 252° (WSW) 02:41:28 436.795 FM
AO-27 19 Apr 02:38:15 02:42:50 31° 96° (E) 02:47:23 436.795 MHz FM
ITAMSAT 1 19 Apr 02:48:58 02:53:47 38° 98° (E) 02:58:35 435.822 SSB
Oscar 19 19 Apr 02:55:01 03:00:15 83° 104° (ESE) 03:05:27 437.125 CW, 437.150 USB
AO-Echo 19 Apr 03:02:28 03:06:59 40° 98° (E) 03:11:23 ?
Oscar 16 19 Apr 03:03:13 03:08:26 79° 285° (WNW) 03:13:37 437.025 USB, Beacon 2401.1428
OPAL 19 Apr 03:15:34 03:20:30 58° 257° (WSW) 03:25:33 ?
TMSAT-1 19 Apr 03:16:36 03:19:50 16° 90° (E) 03:23:02 436.925 FM
UOSAT-12 19 Apr 03:22:02 03:26:43 64° 240° (WSW) 03:31:20 437.025 FM, 437.400 FM
PCSat 19 Apr 03:24:46 03:27:54 15° 322° (NW) 03:31:04 145.825 MHz
AO-40 19 Apr 03:30:59 09:05:19 34° 182° (S) 14:17:38 Beacon 2401.320
Uribyol 2 19 Apr 03:37:22 03:42:32 74° 286° (WNW) 03:47:41 436.500 FM
AO-7 19 Apr 04:01:01 04:05:08 14° 88° (E) 04:09:14 29.400 - 29.500 MHz
KITSAT 1 19 Apr 04:02:46 04:10:53 78° 303° (WNW) 04:19:04 435.175 FM
Gurwin Techsat 1B 19 Apr 04:06:20 04:11:38 65° 102° (ESE) 04:16:53 435.225 FM
AO-27 19 Apr 04:17:43 04:22:20 34° 293° (WNW) 04:26:57 436.795 MHz FM
ITAMSAT 1 19 Apr 04:28:47 04:33:08 28° 295° (WNW) 04:37:28 435.822 SSB
JAS-1B 19 Apr 04:34:17 04:39:33 38° 98° (E) 04:44:58 435.800 - 435.900 CW/SSB
Oscar 19 19 Apr 04:36:14 04:38:54 14° 301° (WNW) 04:41:34 437.125 CW, 437.150 USB
AO-Echo 19 Apr 04:41:47 04:45:31 23° 295° (WNW) 04:49:12 ?
Oscar 16 19 Apr 04:45:22 04:46:55 11° 303° (WNW) 04:48:28 437.025 USB, Beacon 2401.1428
TMSAT-1 19 Apr 04:54:58 05:00:13 66° 287° (WNW) 05:05:27 436.925 FM
Uosat F 19 Apr 04:58:43 05:03:36 51° 100° (E) 05:08:27 435.120 FM
Uribyol 2 19 Apr 05:20:15 05:21:06 10° 304° (NW) 05:21:57 436.500 FM
Gurwin Techsat 1B 19 Apr 05:47:32 05:51:04 18° 299° (WNW) 05:54:35 435.225 FM
AO-7 19 Apr 05:50:52 05:59:13 76° 106° (ESE) 06:07:33 29.400 - 29.500 MHz
STRAND 1 19 Apr 05:53:51 05:57:52 24° 64° (ENE) 06:01:53 ?
KITSAT 1 19 Apr 06:01:22 06:07:41 24° 327° (NNW) 06:14:02 435.175 FM
RS-15 19 Apr 06:10:32 06:19:54 32° 105° (ESE) 06:29:00 29.354 - 29.394 USB, Beacon 29.352 USB
JAS-1B 19 Apr 06:25:21 06:30:10 29° 296° (WNW) 06:35:02 435.800 - 435.900 CW/SSB
Hamsat 19 Apr 06:28:31 06:31:37 19° 92° (E) 06:34:41 145.90 MHz
MaSat-1 19 Apr 06:33:23 06:35:12 15° 57° (ENE) 06:37:10 437.345 MHz
Uosat F 19 Apr 06:38:24 06:42:01 21° 297° (WNW) 06:45:38 435.120 FM
JAS-2 19 Apr 06:46:15 06:47:11 10° 89° (E) 06:48:08 435.800 - 435.900 CW/SSB, 435.910 FM
STRAND 1 19 Apr 07:31:54 07:36:47 45° 261° (W) 07:41:41 ?
AO-7 19 Apr 07:44:39 07:51:15 28° 306° (NW) 07:57:52 29.400 - 29.500 MHz
Sapphire 19 Apr 08:00:21 08:00:50 10° 31° (NNE) 08:01:19 437.095 MHz 1200 baud AX-25 AFSK
KITSAT 1 19 Apr 08:03:22 08:06:44 13° 357° (N) 08:10:06 435.175 FM
Hamsat 19 Apr 08:03:41 08:07:46 40° 288° (WNW) 08:11:51 145.90 MHz
SO-67 19 Apr 08:09:49 08:13:12 44° 99° (E) 08:16:33 435.3500 MHz FM
MaSat-1 19 Apr 08:11:00 08:13:37 27° 248° (WSW) 08:16:37 437.345 MHz
RS-15 19 Apr 08:19:58 08:31:17 75° 306° (NW) 08:42:18 29.354 - 29.394 USB, Beacon 29.352 USB
JAS-2 19 Apr 08:27:32 08:32:55 86° 104° (ESE) 08:38:50 435.800 - 435.900 CW/SSB, 435.910 FM
PCSat 19 Apr 08:42:54 08:46:46 19° 42° (NE) 08:50:38 145.825 MHz
HO-68 19 Apr 08:51:38 08:55:26 15° 88° (E) 08:59:14 435.675 MHz FM
Sapphire 19 Apr 09:40:35 09:45:46 43° 53° (NE) 09:50:54 437.095 MHz 1200 baud AX-25 AFSK
Oscar 11 19 Apr 09:41:06 09:41:29 10° 89° (E) 09:41:52 145.825 FM, Beacon 2401.500 USB
SO-67 19 Apr 09:44:37 09:45:58 12° 295° (WNW) 09:47:19 435.3500 MHz FM
KITSAT 1 19 Apr 10:00:24 10:06:04 20° 28° (NNE) 10:11:42 435.175 FM
JAS-2 19 Apr 10:14:51 10:17:26 14° 301° (WNW) 10:20:06 435.800 - 435.900 CW/SSB, 435.910 FM
PCSat 19 Apr 10:25:25 10:30:52 81° 242° (WSW) 10:36:16 145.825 MHz
RS-15 19 Apr 10:36:32 10:45:49 29° 335° (NNW) 10:55:01 29.354 - 29.394 USB, Beacon 29.352 USB
HO-68 19 Apr 10:36:53 10:44:07 84° 106° (ESE) 10:51:19 435.675 MHz FM
Saudisat 1A 19 Apr 10:55:32 10:59:15 26° 114° (ESE) 11:02:58 436.775 MHz
FUNcube-1 19 Apr 11:03:29 11:07:07 27° 96° (E) 11:10:46 145.950 - 145.970 MHz USB
Oscar 11 19 Apr 11:13:49 11:18:11 75° 285° (WNW) 11:22:31 145.825 FM, Beacon 2401.500 USB
Sapphire 19 Apr 11:24:23 11:28:59 29° 251° (WSW) 11:33:32 437.095 MHz 1200 baud AX-25 AFSK
KITSAT 1 19 Apr 11:55:20 12:03:21 60° 53° (NE) 12:11:18 435.175 FM
PCSat 19 Apr 12:12:20 12:13:21 11° 259° (W) 12:14:22 145.825 MHz
HO-68 19 Apr 12:25:56 12:30:59 21° 305° (NW) 12:36:01 435.675 MHz FM
Saudisat 1A 19 Apr 12:34:32 12:38:42 37° 311° (NW) 12:42:53 436.775 MHz
Oscar 19 19 Apr 12:35:46 12:39:04 18° 61° (ENE) 12:42:23 437.125 CW, 437.150 USB
FUNcube-1 19 Apr 12:39:53 12:43:29 28° 291° (WNW) 12:47:09 145.950 - 145.970 MHz USB
Oscar 16 19 Apr 12:43:21 12:47:12 22° 63° (ENE) 12:51:04 437.025 USB, Beacon 2401.1428
RS-15 19 Apr 12:54:44 13:03:04 24° 11° (N) 13:11:23 29.354 - 29.394 USB, Beacon 29.352 USB
Uribyol 2 19 Apr 13:18:04 13:22:08 24° 64° (ENE) 13:26:13 436.500 FM
Gurwin Techsat 1B 19 Apr 13:51:13 13:54:15 16° 59° (ENE) 13:57:17 435.225 FM
KITSAT 1 19 Apr 13:51:20 13:58:19 33° 253° (WSW) 14:05:16 435.175 FM
AO-27 19 Apr 13:57:04 14:02:04 51° 71° (ENE) 14:07:06 436.795 MHz FM
ITAMSAT 1 19 Apr 14:07:41 14:12:47 63° 72° (ENE) 14:17:55 435.822 SSB
Oscar 19 19 Apr 14:12:47 14:17:53 65° 258° (WSW) 14:23:02 437.125 CW, 437.150 USB
AO-Echo 19 Apr 14:15:36 14:20:45 59° 73° (ENE) 14:25:47 ?
Oscar 16 19 Apr 14:21:13 14:26:12 50° 260° (W) 14:31:14 437.025 USB, Beacon 2401.1428
TMSAT-1 19 Apr 14:37:46 14:42:12 28° 65° (ENE) 14:46:39 436.925 FM
Uosat F 19 Apr 14:38:43 14:39:45 11° 56° (ENE) 14:40:47 435.120 FM
Uribyol 2 19 Apr 14:56:25 15:01:21 45° 261° (W) 15:06:18 436.500 FM
AO-7 19 Apr 15:00:25 15:06:49 26° 53° (NE) 15:13:13 29.400 - 29.500 MHz
RS-15 19 Apr 15:08:29 15:19:00 49° 43° (NE) 15:29:39 29.354 - 29.394 USB, Beacon 29.352 USB
SO-50 19 Apr 15:12:05 15:15:29 22° 112° (ESE) 15:18:55 436.795 FM
JAS-1B 19 Apr 15:19:12 15:26:34 43° 68° (ENE) 15:32:50 435.800 - 435.900 CW/SSB
OPAL 19 Apr 15:24:45 15:29:31 35° 99° (E) 15:34:15 ?
Gurwin Techsat 1B 19 Apr 15:28:16 15:33:34 77° 257° (WSW) 15:38:55 435.225 FM
AO-27 19 Apr 15:38:05 15:41:52 20° 267° (W) 15:45:41 436.795 MHz FM
ISS 19 Apr 15:48:37 15:51:52 51° 141° (SE) 15:55:09 145.800 FM
ITAMSAT 1 19 Apr 15:49:31 15:52:43 16° 269° (W) 15:55:56 435.822 SSB
AO-Echo 19 Apr 15:56:23 15:59:51 18° 268° (W) 16:03:17 ?
Uosat F 19 Apr 16:12:40 16:17:41 78° 74° (ENE) 16:22:43 435.120 FM
TMSAT-1 19 Apr 16:17:01 16:21:57 39° 262° (W) 16:26:55 436.925 FM
AO-7 19 Apr 16:50:29 16:58:46 80° 253° (WSW) 17:07:06 29.400 - 29.500 MHz
SO-50 19 Apr 16:51:28 16:55:46 44° 310° (NW) 17:00:07 436.795 FM
OPAL 19 Apr 17:03:44 17:08:19 32° 296° (WNW) 17:12:53 ?
JAS-1B 19 Apr 17:09:41 17:17:11 39° 262° (W) 17:23:35 435.800 - 435.900 CW/SSB
RS-15 19 Apr 17:21:02 17:31:35 57° 247° (WSW) 17:42:25 29.354 - 29.394 USB, Beacon 29.352 USB
Hamsat 19 Apr 17:23:44 17:26:11 15° 64° (ENE) 17:28:40 145.90 MHz
ISS 19 Apr 17:25:47 17:28:46 29° 339° (NNW) 17:31:46 145.800 FM
UOSAT-12 19 Apr 17:34:15 17:38:17 32° 115° (ESE) 17:42:24 437.025 FM, 437.400 FM
Uosat F 19 Apr 17:54:58 17:57:02 12° 271° (W) 17:59:07 435.120 FM
JAS-2 19 Apr 18:41:13 18:46:29 38° 69° (ENE) 18:51:23 435.800 - 435.900 CW/SSB, 435.910 FM
SO-67 19 Apr 18:45:10 18:47:36 18° 68° (ENE) 18:50:03 435.3500 MHz FM
AO-7 19 Apr 18:48:16 18:52:46 16° 272° (W) 18:57:19 29.400 - 29.500 MHz
Hamsat 19 Apr 18:57:41 19:01:46 50° 261° (W) 19:05:54 145.90 MHz
ISS 19 Apr 19:03:56 19:06:17 17° 359° (N) 19:08:39 145.800 FM
UOSAT-12 19 Apr 19:14:15 19:18:24 33° 313° (NW) 19:22:39 437.025 FM, 437.400 FM
Saudisat 1A 19 Apr 19:21:12 19:25:05 29° 46° (NE) 19:28:55 436.775 MHz
HO-68 19 Apr 19:22:49 19:26:23 15° 50° (NE) 19:29:57 435.675 MHz FM
STRAND 1 19 Apr 19:41:29 19:46:31 58° 101° (E) 19:51:31 ?
SO-67 19 Apr 20:17:34 20:20:35 27° 264° (W) 20:23:36 435.3500 MHz FM
JAS-2 19 Apr 20:26:41 20:31:40 29° 264° (W) 20:36:19 435.800 - 435.900 CW/SSB, 435.910 FM
ISS 19 Apr 20:40:52 20:43:50 28° 20° (NNE) 20:46:47 145.800 FM
Saudisat 1A 19 Apr 21:00:43 21:04:43 35° 244° (WSW) 21:08:41 436.775 MHz
